Change the Weather History Date:

Wednesday, April 16, 2014

  Actual Average (KEGV) Record (KEGV)
Temperature  
Mean Temperature 15 °F -  
Max Temperature 30 °F 44 °F 84 °F (2002)
Min Temperature 0 °F 29 °F 7 °F (2014)
Degree Days  
Heating Degree Days 50    
Moisture  
Dew Point 16 °F    
Average Humidity 86    
Maximum Humidity 96    
Minimum Humidity 61    
Precipitation  
Precipitation 0.00 in - - ()
Sea Level Pressure  
Sea Level Pressure 30.15 in    
Wind  
Wind Speed 4 mph (SE)    
Max Wind Speed 14 mph    
Max Gust Speed 21 mph    
Visibility 5 miles    
Events Snow    
Averages and records for this station are not official NWS values.
T = Trace of Precipitation, MM = Missing Value Source: NWS Daily Summary

Daily Weather History Graph

Daily Weather History Graph

Search for Another Location

Airport or City:

Trip Planner

Search our weather history database for the weather conditions in past years. The results will help you decide how hot, cold, wet, or windy it might be!

Date:

Astronomy

Apr. 16, 2014 Rise Set
Actual Time 6:08 AM CDT 7:45 PM CDT
Civil Twilight 5:37 AM CDT 8:17 PM CDT
Nautical Twilight 4:58 AM CDT 8:55 PM CDT
Astronomical Twilight 4:17 AM CDT 9:37 PM CDT
Moon 9:34 PM CDT (4/16) 6:52 AM CDT (4/16)
Length of Visible Light 14h 39m
Length of Day
13h 36m
Full, 98% of the Moon is Illuminated
Apr 16
Full
Apr 22
Last Quarter
Apr 29
New
May 6
First Quarter
May 14
Full

Hourly Weather History & Observations

Time (CDT) Temp. Windchill Dew Point Humidity Pressure Visibility Wind Dir Wind Speed Gust Speed Precip Events Conditions
12:15 AM 3.0 °F - -0.4 °F 86% 30.13 in 10.0 mi Calm Calm - N/A   Clear
12:35 AM 2.7 °F - -0.6 °F 86% 30.13 in 10.0 mi Calm Calm - N/A   Clear
12:55 AM 2.3 °F - -1.1 °F 86% 30.13 in 10.0 mi Calm Calm - N/A   Clear
1:15 AM 1.9 °F - -1.5 °F 86% 30.13 in 10.0 mi Calm Calm - N/A   Clear
1:35 AM 1.2 °F - -2.2 °F 86% 30.13 in 10.0 mi Calm Calm - N/A   Clear
1:55 AM 0.1 °F - -3.5 °F 85% 30.13 in 10.0 mi Calm Calm - N/A   Clear
2:15 AM 0.5 °F - -3.1 °F 85% 30.13 in 10.0 mi Calm Calm - N/A   Clear
2:35 AM -0.0 °F - -4.0 °F 83% 30.14 in 10.0 mi Calm Calm - N/A   Clear
2:55 AM 0.9 °F - -2.7 °F 85% 30.14 in 10.0 mi Calm Calm - N/A   Clear
3:15 AM 1.0 °F - -2.7 °F 84% 30.14 in 10.0 mi Calm Calm - N/A   Clear
3:35 AM 1.4 °F - -2.4 °F 84% 30.14 in 10.0 mi Calm Calm - N/A   Clear
3:55 AM 0.5 °F - -3.3 °F 84% 30.15 in 10.0 mi Calm Calm - N/A   Clear
4:15 AM 1.8 °F - -1.7 °F 86% 30.15 in 10.0 mi Calm Calm - N/A   Clear
4:35 AM 0.9 °F - -2.7 °F 85% 30.15 in 10.0 mi Calm Calm - N/A   Clear
5:15 AM 1.2 °F - -2.6 °F 84% 30.15 in 10.0 mi Calm Calm - N/A   Overcast
5:35 AM 2.3 °F - -1.3 °F 85% 30.17 in 10.0 mi Calm Calm - N/A   Overcast
5:55 AM 3.4 °F - -0.2 °F 85% 30.17 in 10.0 mi Calm Calm - N/A   Overcast
6:15 AM 5.0 °F - 1.4 °F 85% 30.17 in 10.0 mi Calm Calm - N/A   Overcast
6:35 AM 6.1 °F - 3.0 °F 87% 30.17 in 10.0 mi Calm Calm - N/A   Overcast
6:55 AM 8.4 °F - 5.2 °F 87% 30.18 in 10.0 mi Calm Calm - N/A   Overcast
7:15 AM 10.2 °F - 7.3 °F 88% 30.19 in 10.0 mi Calm Calm - N/A   Overcast
7:35 AM 13.1 °F - 10.6 °F 90% 30.19 in 10.0 mi Calm Calm - N/A   Mostly Cloudy
7:55 AM 16.9 °F - 14.5 °F 91% 30.20 in 10.0 mi Calm Calm - N/A   Mostly Cloudy
8:15 AM 19.8 °F - 16.3 °F 87% 30.20 in 10.0 mi Calm Calm - N/A   Overcast
8:35 AM 23.4 °F 17.4 °F 15.3 °F 71% 30.20 in 10.0 mi SSE 4.6 mph - N/A   Overcast
8:55 AM 24.6 °F 17.7 °F 14.0 °F 64% 30.20 in 10.0 mi South 5.8 mph - N/A   Overcast
9:15 AM 25.3 °F 19.7 °F 14.7 °F 64% 30.20 in 10.0 mi South 4.6 mph - N/A   Overcast
9:35 AM 26.6 °F 19.1 °F 14.9 °F 61% 30.21 in 10.0 mi SSE 6.9 mph - N/A   Overcast
9:55 AM 27.5 °F 20.2 °F 15.4 °F 61% 30.21 in 10.0 mi SSE 6.9 mph - N/A   Overcast
10:15 AM 26.6 °F 21.2 °F 18.7 °F 72% 30.21 in 2.5 mi SSE 4.6 mph - N/A Snow Light Snow
10:35 AM 26.4 °F 18.0 °F 20.5 °F 78% 30.20 in 1.5 mi SSE 8.1 mph - N/A Snow Light Snow
10:55 AM 26.2 °F 18.6 °F 21.7 °F 83% 30.21 in 1.0 mi SSE 6.9 mph - N/A Snow Light Snow
11:15 AM 26.4 °F 19.8 °F 22.1 °F 84% 30.21 in 0.8 mi SSE 5.8 mph - N/A Snow Light Snow
11:35 AM 26.6 °F 17.5 °F 23.0 °F 86% 30.21 in 0.5 mi SE 9.2 mph - N/A Snow Snow
11:55 AM 26.6 °F 19.1 °F 22.8 °F 86% 30.21 in 0.8 mi SE 6.9 mph - N/A Snow Light Snow
12:15 PM 26.6 °F 18.2 °F 23.0 °F 86% 30.20 in 0.8 mi SE 8.1 mph - N/A Snow Light Snow
12:35 PM 26.6 °F 17.5 °F 23.4 °F 88% 30.20 in 0.5 mi ESE 9.2 mph - N/A Snow Snow
12:55 PM 26.4 °F 16.6 °F 23.4 °F 88% 30.19 in 0.5 mi East 10.4 mph - N/A Snow Snow
1:15 PM 26.6 °F 18.2 °F 23.7 °F 89% 30.18 in 0.5 mi ESE 8.1 mph - N/A Snow Snow
1:35 PM 27.0 °F 17.3 °F 23.9 °F 88% 30.17 in 0.5 mi ESE 10.4 mph - N/A Snow Light Snow
1:55 PM 27.1 °F 17.5 °F 23.9 °F 88% 30.16 in 0.5 mi ESE 10.4 mph 18.4 mph N/A Snow Light Snow
2:15 PM 27.5 °F 16.3 °F 24.4 °F 88% 30.15 in 0.5 mi ESE 13.8 mph - N/A Snow Snow
2:35 PM 27.5 °F 18.0 °F 24.4 °F 88% 30.13 in 0.8 mi East 10.4 mph - N/A Snow Light Snow
2:55 PM 27.5 °F 18.6 °F 24.6 °F 89% 30.13 in 1.5 mi ESE 9.2 mph - N/A Snow Light Snow
3:15 PM 28.4 °F 17.5 °F 24.4 °F 85% 30.13 in 2.5 mi ESE 13.8 mph 17.3 mph N/A Snow Light Snow
3:35 PM 28.6 °F 21.5 °F 25.2 °F 87% 30.13 in 0.8 mi SE 6.9 mph 19.6 mph N/A Snow Light Snow
3:55 PM 28.8 °F 20.2 °F 25.7 °F 88% 30.12 in 0.8 mi SE 9.2 mph - N/A Snow Light Snow
4:15 PM 29.1 °F 19.4 °F 25.7 °F 87% 30.11 in 1.5 mi SE 11.5 mph 18.4 mph N/A Snow Light Snow
4:35 PM 29.7 °F 20.1 °F 25.7 °F 85% 30.10 in 1.5 mi SE 11.5 mph 17.3 mph N/A Snow Light Snow
4:55 PM 29.7 °F 19.6 °F 26.4 °F 88% 30.10 in 1.5 mi SE 12.7 mph 20.7 mph N/A Snow Light Snow
5:15 PM 29.8 °F 20.9 °F 27.0 °F 89% 30.11 in 1.0 mi SE 10.4 mph - N/A Snow Light Snow
5:35 PM 29.8 °F 20.9 °F 27.1 °F 90% 30.12 in 0.8 mi SE 10.4 mph - N/A Snow Light Snow
5:55 PM 30.0 °F 21.7 °F 26.6 °F 87% 30.12 in 1.2 mi SE 9.2 mph - N/A Snow Light Snow
6:15 PM 29.8 °F 22.2 °F 27.0 °F 89% 30.12 in 0.8 mi ESE 8.1 mph 16.1 mph N/A Snow Light Snow
6:35 PM 29.7 °F 22.8 °F 27.3 °F 91% 30.12 in 0.5 mi ESE 6.9 mph - N/A Snow Snow
6:55 PM 29.3 °F 21.5 °F 27.5 °F 93% 30.12 in 0.8 mi ESE 8.1 mph - N/A Snow Light Snow
7:15 PM 29.3 °F 21.5 °F 27.5 °F 93% 30.12 in 0.5 mi ESE 8.1 mph - N/A Snow Snow
7:35 PM 29.1 °F 22.1 °F 27.5 °F 94% 30.12 in 0.5 mi ESE 6.9 mph - N/A Snow Snow
7:55 PM 29.1 °F 20.6 °F 27.9 °F 95% 30.12 in 0.5 mi ESE 9.2 mph - N/A Snow Snow
8:15 PM 29.1 °F 21.3 °F 28.0 °F 96% 30.13 in 0.5 mi ESE 8.1 mph - N/A Snow Snow
8:35 PM 29.1 °F 21.3 °F 28.0 °F 96% 30.13 in 0.8 mi East 8.1 mph - N/A Snow Snow
8:55 PM 28.9 °F 21.1 °F 27.9 °F 96% 30.14 in 0.8 mi ESE 8.1 mph - N/A Snow Snow
9:15 PM 28.9 °F 21.9 °F 27.9 °F 96% 30.14 in 1.0 mi ESE 6.9 mph - N/A Snow Snow
9:35 PM 29.1 °F 20.6 °F 27.9 °F 95% 30.14 in 1.2 mi ESE 9.2 mph - N/A Snow Light Snow
9:55 PM 29.3 °F 20.8 °F 28.0 °F 95% 30.15 in 1.0 mi ESE 9.2 mph - N/A Snow Snow
10:15 PM 29.3 °F 21.5 °F 28.2 °F 96% 30.14 in 1.0 mi ESE 8.1 mph - N/A Snow Snow
10:35 PM 29.7 °F 20.1 °F 28.4 °F 95% 30.14 in 1.2 mi SE 11.5 mph - N/A Snow Light Snow
10:55 PM 29.8 °F 21.5 °F 28.4 °F 94% 30.14 in 1.0 mi SE 9.2 mph - N/A Snow Snow
11:15 PM 29.8 °F 20.3 °F 28.4 °F 94% 30.13 in 1.0 mi ESE 11.5 mph 16.1 mph N/A Snow Snow
11:55 PM 29.7 °F 20.1 °F 28.4 °F 95% 30.13 in 1.5 mi ESE 11.5 mph - N/A Snow Light Snow